Mitilini current weather conditions

sailwx.info

Wind from 320 at 7 knots

Air temperature 25.0° C
Dewpoint 9.0° C

Last reported at 2014-Oct-01 14:20 UTC.
Time now 2014-Oct-01 16:19 UTC

Location: N 39°03' E 026°36'.
View on Google Maps.

See reports from other nearby stations

  
Tides and Currents Weather Stations Pressure Air Temp Water Temp Dewpoint Dewpoint Depression Visibility Wind Speed Wind Dir Waves Ship Positions
date/time (UTC)wind fromknots sea level pressurealtimeterstation pressurevisibilityair tempwater tempwave heightnotes
2014-Oct-01 15:20 310 5 24.0
2014-Oct-01 14:50 310 6 25.0
2014-Oct-01 14:20 320 7 25.0
2014-Oct-01 13:50 320 7 25.0
2014-Oct-01 13:20 320 7 24.0
2014-Oct-01 12:50 320 6 24.0
2014-Oct-01 12:20 320 8 24.0
2014-Oct-01 11:50 320 8 24.0
2014-Oct-01 11:20 330 8 24.0
2014-Oct-01 10:50 330 9 23.0
2014-Oct-01 10:20 340 6 22.0
2014-Oct-01 09:50 350 4 22.0
2014-Oct-01 09:20 360 4 21.0
2014-Oct-01 08:50 21.0
2014-Oct-01 08:20 20.0
2014-Oct-01 07:50 010 4 20.0
2014-Oct-01 07:20 19.0
2014-Oct-01 06:50 350 5 19.0
2014-Oct-01 06:20 350 5 18.0
2014-Oct-01 05:50 330 4 18.0
2014-Oct-01 05:20 16.0
2014-Oct-01 04:50 16.0
2014-Oct-01 04:20 15.0
2014-Oct-01 03:50 15.0
2014-Oct-01 03:20 15.0
2014-Oct-01 02:50 15.0
2014-Oct-01 02:20 15.0
2014-Oct-01 01:50 15.0
2014-Oct-01 01:20 16.0
2014-Sep-30 19:50 20.0
2014-Sep-30 19:20 20.0
2014-Sep-30 18:50 20.0
2014-Sep-30 18:20 280 4 21.0
2014-Sep-30 17:50 280 4 21.0
2014-Sep-30 17:20 290 5 21.0
2014-Sep-30 16:50 290 5 21.0
2014-Sep-30 16:20 300 5 21.0
2014-Sep-30 15:50 300 5 22.0
2014-Sep-30 15:20 300 6 23.0
2014-Sep-30 14:50 310 8 23.0
2014-Sep-30 14:20 320 11 24.0
2014-Sep-30 13:50 320 10 24.0
2014-Sep-30 13:20 320 11 24.0
2014-Sep-30 12:50 320 11 24.0
2014-Sep-30 12:20 320 10 24.0
2014-Sep-30 11:50 330 11 24.0
2014-Sep-30 11:20 330 9 24.0
2014-Sep-30 10:50 340 9 23.0
2014-Sep-30 10:20 340 7 23.0
2014-Sep-30 09:50 340 7 23.0
2014-Sep-30 09:20 360 7 22.0
2014-Sep-30 08:50 350 6 21.0
2014-Sep-30 08:20 350 6 21.0
2014-Sep-30 07:50 350 8 21.0
2014-Sep-30 07:20 340 7 20.0
2014-Sep-30 06:50 330 6 19.0
2014-Sep-30 06:20 320 5 18.0
2014-Sep-30 05:50 300 4 17.0
2014-Sep-30 05:20 16.0
2014-Sep-30 04:50 15.0
2014-Sep-30 04:20 14.0
2014-Sep-30 03:50 15.0
2014-Sep-30 03:20 15.0
2014-Sep-30 02:50 15.0
2014-Sep-29 21:50 360 12 18.0
2014-Sep-29 21:20 360 11 18.0
2014-Sep-29 20:50 360 9 18.0
2014-Sep-29 20:20 360 7 18.0
2014-Sep-29 19:50 010 8 18.0
2014-Sep-29 19:20 010 10 19.0
2014-Sep-29 18:50 360 10 19.0
2014-Sep-29 18:20 360 10 19.0
2014-Sep-29 17:50 360 12 gusting 22 19.0
2014-Sep-29 17:20 360 13 gusting 23 20.0
2014-Sep-29 16:50 360 15 gusting 26 20.0
2014-Sep-29 16:20 360 14 gusting 24 21.0